Location: Newark
(45.0333°N, 18.2865°E)
Time: 21:25:51
(UTC+00:00)

N. Korean satellite - Pass Details

Date: 29 September 2021
Orbit: 450 x 495 km, 97.3° (Epoch: 21 October)

Event Time Altitude Azimuth Distance (km) Brightness Sun altitude
Rises 03:13:12 0° 28° (NNE) 2,542 10.8 -16.5°
Reaches altitude 10° 03:15:44 10° 47° (NE) 1,667 10.2 -16.0°
Maximum altitude 03:18:19 19° 93° (E) 1,229 9.6 -15.6°
Drops below altitude 10° 03:20:54 10° 139° (SE) 1,673 9.7 -15.1°
Sets 03:23:27 0° 159° (SSE) 2,555 10.4 -14.7°
